Location: Cieszkowy
(50.3290°N, 20.5336°E)
Time: 13:29:17
(UTC+00:00)

Cosmos 292 Rocket - Pass Details

Date: 15 June 2024
Orbit: 667 x 689 km, 74.0° (Epoch: 16 July)

Event Time Altitude Azimuth Distance (km) Brightness Sun altitude
Exits shadow 00:04:35 22° 204° (SSW) 1,477 4.8 -13.9°
Maximum altitude 00:07:42 88° 289° (WNW) 688 3.7 -13.7°
Drops below altitude 10° 00:12:32 10° 24° (NNE) 2,140 7.8 -13.5°
Sets 00:14:51 0° 25° (NNE) 3,063 9.2 -13.3°
